CAPE
0 0 0 41 101 145 420 696 751 658 669 705 579 465 488 337 141 72 0 0 0 0 0 0 0 0 0 0 0 0 0 0 0 0 0 0 0 1 1 0 0 0 0
0 2 186 260 469 508 634 735 551 650 691 702 552 458 418 326 56 0 0 0 0 0 0 0 0 0 0 0 0 0 0 0 0 0 0 0 0 3 2 0 2 2 1
5 110 458 656 818 914 933 701 601 578 654 698 525 471 319 101 0 0 0 0 0 0 0 0 0 0 0 0 0 0 0 0 0 0 0 0 1 3 1 0 1 1 1
641 680 861 1132 1220 1178 955 795 750 680 694 515 412 370 165 25 0 0 0 0 0 0 0 0 0 0 0 0 0 0 0 0 0 0 0 1 0 1 0 0 0 0 1
1352 1274 1229 1201 901 874 901 843 592 601 482 414 128 37 3 0 0 0 0 0 0 0 0 0 0 0 0 0 0 1 1 0 0 0 1 0 1 1 1 0 0 0 1
1607 1355 1045 856 790 613 481 325 314 293 124 0 1 0 0 0 0 1 0 0 0 0 0 0 0 0 0 0 0 8 1 0 0 0 0 0 0 0 1 1 0 0 0
1406 1198 939 844 675 442 311 258 138 11 0 0 0 0 0 0 0 7 23 10 0 0 0 0 0 0 0 0 1 1 0 0 0 0 0 0 0 0 0 1 0 0 0
1186 1020 796 676 439 266 131 12 0 0 0 0 0 0 0 0 0 2 3 0 0 0 0 0 0 2 3 0 0 1 2 0 0 0 0 0 0 0 0 0 0 0 0
1020 812 646 484 245 66 27 0 0 0 0 0 0 0 0 0 1 1 0 0 0 0 0 0 0 2 1 0 3 1 0 1 1 0 0 0 0 0 0 0 1 0 0
807 610 423 314 93 22 0 0 0 0 0 0 0 0 0 1 0 1 0 0 1 0 0 0 1 1 1 1 0 0 0 0 0 0 0 1 1 0 0 0 0 0 0
470 388 187 74 5 0 0 0 0 0 0 0 0 0 0 0 1 1 0 0 0 0 0 1 0 0 0 1 0 0 0 0 1 0 0 1 1 0 0 0 0 0 0
16 43 14 0 0 0 0 0 0 0 0 0 0 0 1 0 1 0 0 0 0 0 0 0 0 1 1 1 0 2 0 0 1 1 1 1 1 1 1 0 0 0 0
14 76 0 0 0 0 0 0 0 0 0 2 1 1 1 2 0 1 0 2 0 0 0 0 0 2 1 2 2 0 0 0 1 1 1 0 0 0 0 0 0 0 0
137 102 3 0 0 0 0 0 0 0 0 0 1 1 1 1 0 0 0 1 1 0 1 1 0 1 0 0 0 0 0 0 0 1 1 0 1 1 1 0 0 0 0
146 48 0 1 0 0 0 1 0 0 0 0 0 0 1 1 0 0 0 0 0 0 0 0 1 0 0 1 2 0 0 0 0 0 0 1 1 1 0 0 0 0 0
143 38 27 1 0 0 0 0 1 1 1 1 0 0 0 0 0 1 0 0 0 0 1 0 1 1 1 2 1 1 0 0 0 0 0 0 0 0 0 0 0 0 0
79 5 6 0 0 0 0 0 0 0 1 2 2 0 0 0 3 3 2 2 2 0 0 1 1 1 1 2 1 0 0 0 0 0 0 0 0 0 0 0 0 0 0
49 10 8 0 0 0 0 0 0 0 0 1 0 0 2 2 1 2 2 1 0 0 0 0 0 1 1 0 0 0 0 0 0 0 0 0 0 0 0 0 0 0 0
5 22 15 0 0 0 0 0 0 0 0 0 1 0 0 1 1 1 1 0 0 0 1 1 0 0 0 0 0 0 0 0 0 0 0 0 0 0 0 0 0 0 0
44 10 3 0 0 0 0 0 0 0 1 1 1 0 0 0 0 0 0 0 0 0 0 0 0 0 0 0 0 0 0 0 0 0 0 0 0 0 0 0 0 0 0
45 1 1 0 0 0 0 0 0 0 0 0 0 0 0 0 1 0 0 0 0 0 0 0 0 0 0 1 0 0 0 0 0 0 0 0 0 0 0 0 0 0 0
40 1 8 0 0 0 0 0 0 0 0 0 1 1 0 0 0 0 0 0 0 0 0 0 0 0 0 0 0 0 0 0 0 0 0 0 0 0 0 0 0 0 0
59 29 3 0 0 0 0 0 0 0 0 0 0 0 0 0 0 0 0 0 0 0 0 0 0 0 0 0 0 0 0 0 0 0 0 1 0 0 0 0 0 0 0
39 53 21 0 0 0 0 0 0 0 0 0 0 0 0 0 0 0 0 1 1 0 0 0 0 0 0 0 0 0 0 0 0 0 0 0 5 1 9 11 9 6 0
8 43 17 0 0 0 0 0 0 0 0 0 0 0 0 0 0 0 0 2 1 0 0 0 0 0 0 0 0 0 0 0 0 0 0 0 0 0 0 0 0 0 0
0 0 0 3 26 11 0 0 0 0 0 0 0 0 0 0 0 0 0 0 0 0 0 0 0 0 0 0 0 0 0 0 0 0 0 0 0 0 0 0 0 0 0
CIN
-0 -0 -0 -898 -805 -698 -526 -433 -412 -393 -336 -263 -264 -306 -285 -300 -339 -320 -0 -0 -0 -0 -0 -0 -0 -0 -0 -0 -0 -0 -0 -0 -0 -0 -0 -0 -0 -0 -0 -0 -0 -0 -0
-0 -271 -720 -736 -589 -497 -443 -413 -421 -334 -275 -245 -251 -242 -252 -255 -344 -8 -0 -0 -0 -0 -0 -0 -0 -0 -0 -0 -0 -0 -0 -0 -0 -0 -1 -0 -0 -68 -115 -0 -0 -0 -0
-170 -711 -615 -537 -443 -388 -368 -385 -347 -290 -243 -206 -218 -219 -243 -317 -0 -0 -0 -0 -0 -0 -0 -0 -0 -0 -0 -0 -0 -0 -0 -0 -0 -0 -0 -0 -0 -73 -0 -0 -0 -0 -0
-563 -510 -470 -379 -338 -334 -339 -295 -229 -235 -216 -223 -231 -222 -275 -329 -0 -0 -0 -60 -0 -0 -0 -0 -0 -0 -0 -0 -0 -0 -0 -0 -0 -0 -0 -0 -0 -0 -0 -0 -0 -0 -0
-323 -364 -357 -361 -376 -315 -247 -209 -279 -237 -245 -230 -286 -319 -89 -0 -0 -0 -0 -0 -0 -0 -0 -0 -0 -0 -0 -0 -0 -104 -126 -0 -0 -0 -0 -0 -0 -0 -0 -0 -0 -0 -0
-200 -278 -346 -333 -316 -315 -308 -356 -325 -308 -314 -0 -268 -0 -0 -0 -0 -146 -2 -0 -3 -3 -0 -0 -0 -0 -0 -0 -0 -111 -131 -0 -0 -0 -0 -0 -0 -0 -0 -0 -0 -0 -0
-181 -216 -263 -283 -276 -307 -368 -326 -376 -309 -0 -0 -0 -0 -0 -0 -0 -105 -128 -164 -0 -0 -0 -0 -0 -0 -0 -0 -0 -0 -0 -0 -0 -0 -0 -0 -0 -0 -0 -0 -0 -0 -0
-127 -169 -189 -219 -259 -325 -372 -212 -0 -0 -0 -0 -0 -0 -0 -0 -0 -89 -86 -0 -0 -0 -0 -0 -0 -155 -170 -77 -0 -95 -42 -0 -0 -0 -0 -0 -0 -0 -0 -0 -0 -0 -0
-60 -110 -146 -212 -291 -374 -475 -0 -0 -0 -0 -0 -0 -0 -0 -0 -0 -0 -0 -0 -0 -0 -0 -0 -0 -147 -31 -0 -117 -25 -0 -0 -0 -0 -0 -0 -0 -0 -0 -0 -0 -0 -0
-12 -88 -164 -219 -295 -378 -0 -0 -0 -0 -0 -0 -0 -0 -0 -0 -0 -0 -0 -0 -0 -0 -0 -0 -0 -128 -0 -0 -0 -0 -0 -0 -0 -0 -0 -0 -0 -0 -0 -0 -0 -0 -0
-6 -79 -151 -225 -228 -0 -0 -0 -0 -0 -0 -0 -0 -0 -0 -0 -0 -0 -0 -0 -0 -0 -0 -0 -0 -0 -0 -0 -0 -0 -0 -0 -0 -0 -0 -0 -0 -0 -0 -0 -14 -0 -0
-11 -74 -165 -0 -0 -0 -0 -0 -0 -0 -0 -0 -0 -0 -0 -0 -0 -0 -0 -0 -0 -0 -0 -0 -0 -0 -0 -0 -0 -0 -0 -0 -0 -0 -0 -0 -0 -0 -0 -0 -0 -0 -0
-4 -138 -0 -0 -0 -0 -0 -0 -0 -0 -0 -0 -0 -0 -0 -0 -0 -0 -0 -0 -0 -0 -0 -0 -0 -0 -0 -0 -0 -0 -0 -0 -0 -0 -0 -0 -0 -0 -0 -0 -0 -0 -0
-25 -126 -130 -0 -0 -0 -0 -0 -0 -0 -0 -0 -0 -0 -0 -0 -0 -0 -0 -0 -0 -0 -0 -0 -0 -0 -0 -0 -0 -0 -0 -0 -0 -0 -0 -0 -0 -0 -0 -0 -0 -0 -0
-77 -157 -0 -59 -0 -0 -0 -0 -0 -0 -0 -0 -0 -0 -0 -0 -0 -0 -0 -0 -0 -0 -0 -0 -0 -0 -0 -0 -0 -0 -0 -0 -0 -0 -0 -0 -0 -0 -0 -0 -0 -0 -0
-41 -138 -192 -80 -0 -0 -0 -0 -0 -0 -0 -0 -0 -0 -0 -0 -0 -0 -0 -0 -0 -0 -0 -0 -0 -0 -0 -0 -0 -0 -0 -0 -0 -0 -0 -0 -0 -0 -0 -0 -0 -0 -0
-36 -180 -266 -0 -0 -0 -0 -0 -0 -0 -0 -0 -0 -0 -0 -0 -0 -0 -0 -0 -0 -0 -0 -0 -0 -0 -0 -0 -0 -0 -0 -0 -0 -0 -0 -0 -0 -0 -0 -0 -0 -0 -0
-80 -306 -274 -41 -0 -0 -0 -0 -0 -0 -0 -0 -0 -0 -0 -0 -0 -0 -0 -0 -0 -0 -0 -0 -0 -0 -0 -0 -0 -0 -0 -0 -0 -28 -0 -0 -0 -0 -0 -0 -0 -0 -0
-180 -236 -265 -0 -0 -0 -0 -0 -0 -0 -0 -0 -0 -0 -0 -0 -0 -0 -0 -0 -0 -0 -0 -0 -0 -0 -0 -43 -0 -0 -0 -0 -0 -0 -0 -0 -0 -0 -0 -0 -0 -0 -0
-111 -185 -156 -0 -0 -0 -0 -0 -0 -0 -0 -0 -0 -0 -0 -0 -0 -0 -0 -0 -0 -0 -0 -0 -0 -0 -0 -0 -0 -0 -0 -0 -0 -0 -0 -0 -0 -0 -0 -0 -0 -0 -0
-184 -262 -102 -0 -0 -0 -0 -0 -0 -0 -0 -0 -0 -0 -0 -0 -0 -0 -3 -104 -66 -0 -0 -0 -0 -0 -0 -0 -0 -0 -0 -0 -0 -0 -0 -0 -0 -0 -0 -0 -0 -0 -0
-200 -27 -203 -0 -0 -0 -0 -0 -0 -0 -0 -0 -0 -0 -0 -0 -0 -0 -0 -0 -0 -0 -0 -0 -0 -0 -0 -0 -0 -0 -0 -0 -0 -0 -0 -0 -0 -0 -0 -0 -0 -0 -0
-171 -200 -140 -0 -0 -0 -0 -0 -0 -0 -0 -0 -0 -0 -0 -0 -0 -0 -0 -0 -0 -0 -0 -0 -0 -0 -0 -0 -0 -0 -0 -0 -0 -0 -125 -34 -0 -0 -0 -0 -0 -0 -0
-192 -196 -220 -24 -0 -0 -0 -0 -0 -0 -0 -0 -0 -0 -0 -0 -0 -0 -0 -0 -0 -0 -0 -0 -0 -0 -0 -0 -0 -0 -0 -0 -0 -0 -0 -6 -77 -17 -125 -114 -99 -103 -0
-195 -244 -247 -0 -0 -0 -0 -0 -0 -0 -0 -0 -0 -0 -0 -0 -0 -0 -0 -0 -0 -0 -0 -0 -0 -0 -0 -0 -0 -0 -0 -0 -0 -0 -0 -0 -0 -0 -0 -0 -0 -0 -0
-0 -0 -0 -224 -257 -167 -0 -0 -0 -0 -0 -0 -0 -0 -0 -0 -0 -0 -0 -0 -0 -0 -0 -0 -0 -0 -0 -0 -0 -0 -0 -0 -0 -0 -0 -0 -0 -0 -0 -0 -0 -0 -0
Wind_Speed
10 9 10 10 10 10 9 9 10 10 10 11 10 10 10 9 8 7 6 6 6 5 3 5 6 4 3 3 3 2 3 3 3 1 0 2 2 5 4 4 4 4 3
10 11 8 9 10 9 9 10 11 11 11 12 11 10 10 11 9 8 8 6 7 6 6 5 5 4 4 4 3 4 4 4 4 5 1 1 1 3 4 5 4 4 4
11 9 9 10 11 11 10 10 10 11 11 11 11 11 11 10 10 7 7 7 6 6 6 6 6 5 4 3 3 4 3 3 3 4 3 1 2 2 5 5 4 5 5
11 12 11 11 11 10 10 11 12 11 12 11 11 11 10 9 8 7 7 7 6 6 6 5 5 6 6 6 4 5 4 4 3 4 3 2 3 3 4 4 4 4 4
10 11 11 11 10 10 11 11 11 12 10 11 11 9 8 8 7 8 7 7 7 6 5 5 4 4 5 5 4 4 5 4 4 5 4 2 2 2 5 2 3 3 4
8 11 12 12 12 12 11 12 12 11 10 11 10 10 8 5 11 11 9 7 6 7 6 5 4 6 5 5 3 5 7 7 6 4 3 7 4 3 4 5 5 3 3
11 10 11 12 13 13 14 14 12 12 11 9 8 8 7 6 10 13 12 6 7 6 6 5 4 3 4 4 3 5 8 8 5 4 6 5 8 6 7 7 4 3 3
10 12 13 14 14 13 13 12 9 7 10 8 7 7 7 4 8 13 11 7 5 5 5 5 5 5 5 5 5 5 5 5 4 2 5 5 5 8 8 7 7 7 5
9 12 13 14 15 13 13 12 8 9 7 6 6 8 8 4 6 11 9 6 5 5 5 4 4 4 6 7 5 6 5 3 5 3 6 10 10 13 10 9 7 9 3
8 12 13 15 15 13 11 11 5 8 7 7 7 6 8 7 6 10 9 5 5 4 3 2 2 4 8 10 6 7 7 3 4 5 4 6 7 10 12 7 10 8 5
5 12 13 14 15 12 10 9 7 8 8 8 8 6 6 5 5 9 10 6 5 4 3 2 1 3 8 8 9 6 4 7 7 6 5 4 4 6 3 3 3 10 6
13 13 13 11 11 9 12 8 10 10 10 8 8 5 4 4 5 6 8 6 8 5 4 3 3 2 8 10 7 12 13 9 5 5 4 4 5 4 3 4 4 4 2
10 11 14 12 11 11 12 10 8 8 8 8 7 6 4 3 2 3 6 7 8 3 4 5 8 5 8 7 14 14 10 6 5 5 4 3 2 3 5 4 4 6 5
7 10 11 11 9 9 8 8 8 7 8 8 7 6 5 4 3 3 4 5 8 6 7 5 4 6 6 8 6 4 4 4 5 4 3 3 4 3 4 3 4 3 3
6 10 9 9 10 9 7 4 6 4 8 9 7 8 8 6 6 9 9 5 5 5 7 3 3 3 5 5 4 4 3 4 4 3 3 3 3 3 2 2 2 2 2
6 10 10 9 9 7 7 5 15 9 4 6 11 9 3 7 12 12 11 11 12 12 3 4 3 5 7 5 5 4 3 4 3 4 3 3 3 3 3 2 2 2 2
5 10 9 9 9 8 7 7 7 8 15 12 5 10 10 11 15 13 13 12 12 7 3 4 4 6 6 5 5 4 4 3 4 4 4 3 3 3 4 3 3 2 2
6 11 11 8 8 7 6 6 6 7 6 4 10 6 6 14 13 13 14 10 4 2 3 4 5 6 6 6 5 4 5 4 4 4 4 4 4 4 3 3 2 3 2
8 8 9 7 6 7 6 6 6 6 6 5 4 6 8 11 9 12 9 4 4 3 4 4 4 4 5 5 4 4 5 5 5 4 4 4 5 4 3 3 3 4 3
7 9 12 9 8 7 6 6 7 7 7 6 5 5 4 4 4 5 2 3 3 3 3 4 3 4 4 5 4 4 4 4 4 4 3 3 4 5 5 5 4 3 4
7 7 9 9 7 7 7 7 7 7 6 7 5 4 5 6 5 4 3 3 3 3 4 4 4 4 3 4 4 3 3 3 3 3 4 4 4 4 3 4 4 3 3
8 8 9 9 8 8 7 7 7 8 8 8 6 3 5 4 5 4 3 3 3 3 4 4 4 3 3 3 4 4 4 4 3 4 4 4 5 4 4 4 4 4 4
9 9 9 8 9 9 7 7 6 6 8 8 8 6 3 5 4 3 4 5 5 5 5 4 5 5 5 4 4 2 2 3 3 3 4 5 5 5 5 5 4 4 4
7 9 10 9 9 9 8 8 6 8 9 9 9 6 3 5 7 8 7 6 7 7 7 7 7 8 5 5 4 4 3 3 2 3 4 4 5 6 5 5 5 7 5
4 8 10 10 10 9 9 8 7 8 9 8 8 7 7 8 8 8 7 7 8 9 11 9 8 10 12 13 11 9 7 5 2 3 3 4 5 6 4 5 5 4 4
6 7 6 8 8 9 10 9 7 7 8 9 9 9 9 9 8 9 9 9 9 10 11 10 12 16 15 13 13 12 13 13 10 9 6 6 7 6 6 7 9 6 6
Wind_Direction
186 186 167 168 159 150 163 172 173 162 160 160 159 149 149 149 141 138 142 155 162 167 159 164 190 169 182 187 175 162 182 157 137 213 246 10 79 111 73 62 68 70 87
180 164 159 141 145 157 173 174 160 165 165 159 147 151 151 152 147 150 163 164 172 174 178 175 195 175 187 186 181 199 194 183 136 174 139 120 120 76 102 82 68 84 86
165 154 151 152 156 174 170 158 159 159 158 147 148 157 158 150 151 164 160 165 173 174 178 184 195 179 193 192 192 204 192 182 165 152 138 132 89 90 83 67 59 61 70
157 158 154 158 166 162 150 153 161 156 146 145 154 154 151 150 155 150 163 152 164 179 180 187 188 190 191 187 188 204 182 148 137 121 100 106 96 78 90 114 71 50 75
149 146 154 146 140 142 149 152 139 146 142 149 144 145 143 145 155 159 153 158 162 160 164 176 174 180 190 176 169 191 157 144 143 141 131 130 102 117 132 111 92 88 51
145 143 136 140 144 143 142 135 137 134 142 142 142 146 137 155 157 146 149 158 157 158 163 164 160 153 142 124 134 172 171 156 153 150 149 157 151 113 129 132 131 127 100
138 139 140 138 142 144 133 140 140 137 133 141 136 138 155 143 159 164 161 156 154 158 162 160 169 177 177 174 118 144 151 160 164 166 153 165 162 154 147 146 135 94 94
143 145 150 144 139 128 129 121 118 130 138 137 136 132 122 123 180 165 142 128 128 155 161 171 175 177 187 174 164 152 163 175 169 187 169 156 148 144 156 147 127 97 79
160 154 153 145 132 135 129 134 132 129 126 129 131 128 131 125 130 138 126 122 134 153 168 177 191 199 181 171 157 163 132 83 25 26 153 136 137 129 132 126 140 136 122
188 163 160 144 139 132 134 130 124 129 121 120 113 117 121 136 133 144 125 138 146 150 136 160 357 217 164 157 145 152 140 138 134 101 80 75 124 143 161 168 155 149 126
256 159 152 144 132 131 125 127 124 117 112 109 106 104 108 129 138 157 140 153 164 149 159 185 170 152 169 155 132 128 123 130 123 113 109 111 117 148 146 136 164 151 149
311 163 130 132 129 129 123 124 124 124 121 114 110 99 101 108 115 174 154 137 147 151 166 166 142 128 150 141 114 125 128 126 118 117 127 135 146 153 135 144 132 104 79
262 149 125 121 126 126 125 124 121 127 128 131 134 140 135 133 122 135 157 154 144 128 137 134 119 115 123 95 131 135 129 129 127 133 135 120 132 123 117 96 98 95 80
181 129 117 120 121 125 124 132 134 137 138 151 150 148 144 142 140 132 126 106 95 83 101 106 107 103 87 113 113 105 97 118 131 123 113 105 112 130 137 139 140 130 107
176 122 119 124 124 104 72 89 140 122 151 156 163 160 159 173 183 159 150 145 137 131 116 119 119 103 117 132 116 106 110 113 116 94 110 107 110 119 111 114 101 113 121
153 137 135 126 130 124 125 101 47 47 76 93 148 156 129 135 141 145 143 138 137 148 131 153 138 139 144 149 140 130 125 136 127 125 119 126 124 126 124 124 106 116 113
166 141 123 127 135 141 141 136 122 56 67 55 106 141 148 159 148 143 140 142 149 145 139 151 150 149 147 146 141 152 141 143 132 143 148 139 129 128 138 142 135 133 186
156 142 138 139 135 133 134 128 133 139 130 105 38 53 115 131 130 133 132 117 132 116 133 142 150 148 148 148 155 146 137 145 148 149 153 157 155 152 149 155 162 159 183
149 147 130 121 114 118 120 118 114 109 115 114 112 64 63 88 114 141 149 135 149 146 144 135 133 134 148 154 154 153 155 162 158 159 163 164 165 155 168 173 181 193 189
160 129 125 121 125 121 122 117 116 118 125 133 132 126 136 111 127 153 116 118 124 127 127 133 135 133 140 147 140 140 140 150 164 160 166 172 167 177 189 193 193 185 203
137 132 121 126 133 133 128 127 133 137 132 139 126 120 139 123 132 122 115 137 138 138 132 134 139 139 140 146 147 144 141 159 169 170 174 177 177 189 192 188 199 197 218
142 144 144 142 135 135 135 127 134 144 143 136 126 92 80 96 115 120 121 132 130 140 143 142 131 131 141 141 147 158 170 184 187 193 197 198 194 201 201 203 210 207 219
155 151 138 138 134 120 128 125 136 136 129 128 132 126 110 122 124 105 84 60 54 47 37 59 79 68 52 47 40 48 184 203 220 204 200 194 189 193 190 203 212 221 222
152 151 138 138 134 136 134 132 140 128 128 127 138 136 127 101 86 77 71 69 68 61 55 57 57 60 54 46 35 31 7 352 323 278 262 232 210 202 192 193 196 211 229
143 143 139 136 141 138 129 135 139 137 131 128 128 107 92 92 92 86 80 75 69 68 64 60 53 52 52 47 40 30 14 23 351 349 20 84 93 94 92 91 80 76 78
78 77 92 128 140 146 140 131 124 120 122 118 109 100 95 89 85 86 84 83 82 75 73 66 61 58 55 46 38 29 36 30 31 30 47 56 58 46 67 67 76 71 66